This demonstration page uses our WeatherBlox Daily Observations layout. Learn more.

Left ArrowRight Arrow

Hourly Observations for February 1, 2022

Temp ( °F °C ) Dew Point ( °F °C ) Humidity (%) Winds ( mph kmh ) Pressure ( in mb ) Visibility ( mi km ) Precip ( " mm )
12:15 am 00:15 Clear 36 2.1 16 -9.1 44 44 NNW 10 17 29.85 1011 10 16 0.00 0.00
12:35 am 00:35 Clear 35 1.6 16 -9 46 46 NNW 8 13 29.87 1011 10 16 0.00 0.00
12:55 am 00:55 Clear 35 1.7 18 -8 49 49 N 12 19 29.88 1012 10 16 0.00 0.00
1:15 am 01:15 Clear 35 1.8 20 -6.7 54 54 N 8 13 29.89 1012 10 16 0.00 0.00
1:35 am 01:35 Clear 36 2 21 -6 56 56 N 10 17 29.90 1012 10 16 0.00 0.00
1:55 am 01:55 Clear 36 2 22 -5.7 57 57 N 8 13 29.91 1013 10 16 0.00 0.00
2:15 am 02:15 Clear 35 1.7 22 -5.5 59 59 N 8 13 29.92 1013 10 16 0.00 0.00
2:35 am 02:35 Clear 35 1.8 23 -5.2 60 60 N 10 17 29.93 1013 10 16 0.00 0.00
2:55 am 02:55 Clear 34 1.2 23 -5.2 63 63 N 8 13 29.94 1014 10 16 0.00 0.00
3:15 am 03:15 Clear 33 0.3 22 -5.5 65 65 NNW 7 11 29.95 1014 10 16 0.00 0.00
3:35 am 03:35 Clear 32 -0.2 22 -5.7 67 67 NNW 9 15 29.97 1015 10 16 0.00 0.00
3:55 am 03:55 Clear 32 0 22 -5.7 66 66 NNW 10 17 29.96 1015 10 16 0.00 0.00
4:15 am 04:15 Clear 34 1.1 22 -5.7 61 61 N 13 20 29.95 1014 10 16 0.00 0.00
4:35 am 04:35 Clear 35 1.6 21 -6.1 57 57 N 13 20 29.97 1015 10 16 0.00 0.00
4:55 am 04:55 Clear 35 1.8 20 -6.5 55 55 N 13 20 29.98 1015 10 16 0.00 0.00
5:15 am 05:15 Clear 34 1 20 -6.8 56 56 N 10 17 30.00 1016 10 16 0.00 0.00
5:35 am 05:35 Clear 32 0.1 19 -7 59 59 N 8 13 30.00 1016 10 16 0.00 0.00
5:55 am 05:55 Clear 30 -1 19 -7 64 64 NNW 7 11 30.02 1017 10 16 0.00 0.00
6:15 am 06:15 Clear 29 -1.4 19 -7.1 66 66 NW 6 9 30.04 1017 10 16 0.00 0.00
6:35 am 06:35 Clear 29 -1.8 19 -7.2 67 67 NNW 7 11 30.05 1018 10 16 0.00 0.00
6:55 am 06:55 Clear 28 -2 19 -7.1 68 68 NNW 9 15 30.05 1018 10 16 0.00 0.00
7:15 am 07:15 Clear 28 -2.3 19 -7.3 69 69 NNW 9 15 30.08 1019 10 16 0.00 0.00
7:35 am 07:35 Clear 28 -2.3 19 -7.2 69 69 NNW 9 15 30.09 1019 10 16 0.00 0.00
7:55 am 07:55 Sunny 29 -1.7 19 -7.3 66 66 NNW 12 19 30.09 1019 10 16 0.00 0.00
8:15 am 08:15 Sunny 29 -1.7 19 -7.3 66 66 NNW 10 17 30.10 1019 10 16 0.00 0.00
8:35 am 08:35 Sunny 31 -0.6 19 -7 62 62 NNW 14 22 30.09 1019 10 16 0.00 0.00
8:55 am 08:55 Sunny 32 0.1 18 -7.6 57 57 N 16 26 30.08 1019 10 16 0.00 0.00
9:15 am 09:15 Sunny 34 0.9 17 -8.3 51 51 N 21 33 30.09 1019 10 16 0.00 0.00
9:35 am 09:35 Sunny 33 0.7 16 -8.9 49 49 N 22 35 30.11 1020 10 16 0.00 0.00
9:55 am 09:55 Sunny 33 0.8 16 -9.1 48 48 N 21 33 30.11 1020 10 16 0.00 0.00
10:15 am 10:15 Sunny 34 1 16 -9.1 47 47 N 21 33 30.13 1020 10 16 0.00 0.00
10:35 am 10:35 Sunny 34 1.1 15 -9.3 46 46 N 17 28 30.13 1020 10 16 0.00 0.00
10:55 am 10:55 Sunny 34 1.1 15 -9.6 45 45 N 16 26 30.14 1021 10 16 0.00 0.00
11:15 am 11:15 Sunny 35 1.5 15 -9.3 45 45 N 16 26 30.14 1021 10 16 0.00 0.00
11:35 am 11:35 Sunny 35 1.5 15 -9.2 45 45 NNE 20 31 30.15 1021 10 16 0.00 0.00
11:55 am 11:55 Sunny 35 1.7 15 -9.6 43 43 N 21 33 30.13 1020 10 16 0.00 0.00
12:15 pm 12:15 Sunny 35 1.7 15 -9.5 44 44 NNE 22 35 30.13 1020 10 16 0.00 0.00
12:35 pm 12:35 Sunny 35 1.7 13 -10.4 41 41 NNE 22 35 30.12 1020 10 16 0.00 0.00
12:55 pm 12:55 Sunny 34 1.3 13 -10.7 41 41 N 21 33 30.12 1020 10 16 0.00 0.00
1:15 pm 13:15 Sunny 35 1.6 13 -10.5 41 41 NNE 22 35 30.12 1020 10 16 0.00 0.00
1:35 pm 13:35 Sunny 34 1.1 11 -11.7 38 38 N 22 35 30.10 1019 10 16 0.00 0.00
1:55 pm 13:55 Sunny 34 1.1 10 -12 37 37 N 22 35 30.11 1020 10 16 0.00 0.00
2:15 pm 14:15 Sunny 34 1 10 -12 38 38 N 21 33 30.12 1020 10 16 0.00 0.00
2:35 pm 14:35 Sunny 34 1 10 -12 38 38 N 18 30 30.13 1020 10 16 0.00 0.00
2:55 pm 14:55 Sunny 34 1 10 -12 38 38 N 18 30 30.13 1020 10 16 0.00 0.00
3:15 pm 15:15 Sunny 34 0.9 10 -12 38 38 NNE 16 26 30.14 1021 10 16 0.00 0.00
3:35 pm 15:35 Sunny 34 1 9 -12.8 35 35 N 20 31 30.14 1021 10 16 0.00 0.00
3:55 pm 15:55 Sunny 33 0.3 8 -13.1 36 36 N 21 33 30.13 1020 10 16 0.00 0.00
4:15 pm 16:15 Sunny 32 0.1 9 -12.9 37 37 N 22 35 30.14 1021 10 16 0.00 0.00
4:35 pm 16:35 Sunny 32 -0.2 7 -13.7 36 36 NNE 25 41 30.15 1021 10 16 0.00 0.00
4:55 pm 16:55 Sunny 31 -0.8 7 -14 36 36 N 21 33 30.16 1021 10 16 0.00 0.00
5:15 pm 17:15 Sunny 30 -1.2 6 -14.5 36 36 NNE 21 33 30.18 1022 10 16 0.00 0.00
5:35 pm 17:35 Sunny 28 -2 4 -15.6 35 35 NNE 17 28 30.19 1022 10 16 0.00 0.00
5:55 pm 17:55 Sunny 27 -2.7 3 -16 36 36 NNE 18 30 30.21 1023 10 16 0.00 0.00
6:15 pm 18:15 Clear 27 -3 4 -15.8 37 37 NNE 15 24 30.22 1024 10 16 0.00 0.00
6:35 pm 18:35 Clear 26 -3.2 4 -15.6 38 38 NNE 14 22 30.24 1024 10 16 0.00 0.00
6:55 pm 18:55 Clear 26 -3.3 4 -15.4 39 39 NNE 15 24 30.24 1024 10 16 0.00 0.00
7:15 pm 19:15 Clear 26 -3.2 4 -15.6 38 38 NNE 18 30 30.25 1024 10 16 0.00 0.00
7:35 pm 19:35 Mostly Cloudy 26 -3.3 2 -16.6 35 35 NNE 24 39 30.26 1025 10 16 0.00 0.00
7:55 pm 19:55 Cloudy 26 -3.5 2 -16.5 36 36 NNE 16 26 30.27 1025 10 16 0.00 0.00
8:15 pm 20:15 Cloudy 25 -3.7 2 -16.5 37 37 NNE 22 35 30.27 1025 10 16 0.00 0.00
8:35 pm 20:35 Cloudy 25 -3.9 2 -16.5 37 37 NNE 18 30 30.28 1026 10 16 0.00 0.00
8:55 pm 20:55 Cloudy 25 -4.1 2 -16.6 37 37 NNE 16 26 30.30 1026 10 16 0.00 0.00
9:15 pm 21:15 Mostly Cloudy 24 -4.2 2 -16.6 38 38 NNE 18 30 30.30 1026 10 16 0.00 0.00
9:35 pm 21:35 Mostly Cloudy 24 -4.5 0 -17.9 35 35 NNE 18 30 30.31 1026 10 16 0.00 0.00
9:55 pm 21:55 Mostly Cloudy 23 -5.1 -1 -18.6 34 34 NNE 20 31 30.34 1027 10 16 0.00 0.00
10:15 pm 22:15 Cloudy 23 -5.2 -1 -18.5 35 35 NNE 23 37 30.34 1027 10 16 0.00 0.00
10:35 pm 22:35 Cloudy 22 -5.5 -1 -18.4 36 36 NE 18 30 30.35 1028 10 16 0.00 0.00
10:55 pm 22:55 Cloudy 22 -5.8 -1 -18.3 37 37 NE 17 28 30.35 1028 10 16 0.00 0.00
11:15 pm 23:15 Mostly Cloudy 21 -6.1 -1 -18.3 38 38 NE 21 33 30.37 1028 10 16 0.00 0.00
11:35 pm 23:35 Mostly Cloudy 20 -6.6 -2 -18.8 38 38 NE 22 35 30.38 1029 10 16 0.00 0.00
11:55 pm 23:55 Cloudy 20 -6.9 -2 -19.1 38 38 NNE 20 31 30.38 1029 10 16 0.00 0.00

Powered by AerisWeather